Date String (YYYY-MM-DD hh:mm:ss) UTC,Instrument flags,absolute air pressure of the measurement (hPa),sample flow rate (lpm),inlet stack bypass flow (lpm),air temperature of the measurement (°C),ambient temperature measured by the external sensor (°C),aerosol sample conditioner tube jacket temperature (°C),OPC LED temperature (°C),internal box temperature (°C),relative humidity of the measurement (%),span deviation,mass concentration of particles derived from Lorenz-Mie calculation of OPC scattering (μg/m³),mass concentration of particles derived from Lorenz-Mie calculation of OPC scattering (μg/m³),mass concentration of particles derived from Lorenz-Mie calculation of OPC scattering (μg/m³)
DateTimeUTC,F1_M11,P_M11,Q1_M11,Q2_M11,T1_M11,T2_M11,T3_M11,T4_M11,T5_M11,U1_M11,ZSPAN_M11,X2_M11,X0_M11,X1_M11
2024-05-29 10:00:00,SystemResetWarning,0832.2,5.00,000.00,029.7,028.8,000.0,038.3,031.5,024.8,0000.0,0005.96,0017.37,0004.37
2024-05-29 10:01:00,SystemResetWarning,0832.3,4.99,000.00,029.7,028.8,000.0,038.3,031.5,024.8,0000.0,0006.04,0017.55,0004.42
2024-05-29 10:02:00,SystemResetWarning,0832.3,5.00,000.00,029.7,028.8,000.0,038.3,031.5,024.8,0000.0,0006.15,0018.48,0004.45
2024-05-29 10:03:00,SystemResetWarning,0832.3,5.00,000.00,029.7,028.8,000.0,038.3,031.5,024.8,0000.0,0006.17,0018.49,0004.48
2024-05-29 10:04:00,SystemResetWarning,0832.2,5.00,000.00,029.7,028.8,000.0,038.3,031.5,024.8,0000.0,0006.27,0019.02,0004.51
2024-05-29 10:05:00,SystemResetWarning,0832.2,5.00,000.00,029.7,028.8,000.0,038.3,031.5,024.9,0000.0,0006.30,0018.40,0004.55
2024-05-29 10:06:00,SystemResetWarning,0832.2,5.00,000.00,029.7,028.8,000.0,038.3,031.5,024.9,0000.0,0006.29,0018.82,0004.57
2024-05-29 10:07:00,SystemResetWarning,0832.2,5.00,000.00,029.7,028.8,000.0,038.3,031.4,024.9,0000.0,0006.29,0018.93,0004.58
2024-05-29 10:08:00,SystemResetWarning,0832.2,5.00,000.00,029.7,028.8,000.0,038.3,031.4,025.0,0000.0,0006.26,0018.48,0004.60
2024-05-29 10:09:00,SystemResetWarning,0832.2,5.01,000.00,029.7,028.7,000.0,038.3,031.4,025.1,0000.0,0006.25,0018.91,0004.61
2024-05-29 10:10:00,SystemResetWarning,0832.2,5.00,000.00,029.7,028.7,000.0,038.2,031.4,025.1,0000.0,0006.28,0018.75,0004.61
2024-05-29 10:11:00,SystemResetWarning,0832.2,5.00,000.00,029.6,028.7,000.0,038.2,031.4,025.2,0000.0,0006.34,0018.62,0004.62
2024-05-29 10:12:00,SystemResetWarning,0832.2,5.00,000.00,029.6,028.7,000.0,038.2,031.4,025.1,0000.0,0006.37,0018.83,0004.63
2024-05-29 10:13:00,SystemResetWarning,0832.2,5.00,000.00,029.6,028.7,000.0,038.2,031.3,025.0,0000.0,0006.35,0018.24,0004.63
2024-05-29 10:14:00,SystemResetWarning,0832.1,5.01,000.00,029.6,028.6,000.0,038.2,031.3,024.8,0000.0,0006.30,0018.22,0004.62
2024-05-29 10:15:00,SystemResetWarning,0832.2,4.99,000.00,029.6,028.6,000.0,038.2,031.3,024.7,0000.0,0006.25,0018.05,0004.62
2024-05-29 10:16:00,SystemResetWarning,0832.2,5.00,000.00,029.5,028.6,000.0,038.2,031.3,024.6,0000.0,0006.23,0018.60,0004.62
2024-05-29 10:17:00,SystemResetWarning,0832.2,4.99,000.00,029.5,028.5,000.0,038.2,031.2,024.5,0000.0,0006.23,0019.47,0004.60
2024-05-29 10:18:00,SystemResetWarning,0832.2,4.99,000.00,029.5,028.5,000.0,038.2,031.2,024.5,0000.0,0006.22,0019.67,0004.61
2024-05-29 10:19:00,SystemResetWarning,0832.1,5.00,000.00,029.5,028.5,000.0,038.1,031.2,024.5,0000.0,0006.23,0021.67,0004.61
2024-05-29 10:20:00,SystemResetWarning,0832.1,5.00,000.00,029.5,028.5,000.0,038.1,031.2,024.8,0000.0,0006.26,0021.50,0004.62
2024-05-29 10:21:00,SystemResetWarning,0832.1,5.01,000.00,029.4,028.4,000.0,038.1,031.2,025.0,0000.0,0006.23,0020.39,0004.62
2024-05-29 10:22:00,SystemResetWarning,0832.1,5.00,000.00,029.4,028.4,000.0,038.1,031.2,025.0,0000.0,0006.19,0020.78,0004.61
2024-05-29 10:23:00,SystemResetWarning,0832.1,5.00,000.00,029.4,028.4,000.0,038.1,031.2,025.0,0000.0,0006.20,0020.89,0004.61
2024-05-29 10:24:00,SystemResetWarning,0832.1,5.00,000.00,029.4,028.4,000.0,038.0,031.2,024.8,0000.0,0006.17,0020.65,0004.60
2024-05-29 10:25:00,SystemResetWarning,0832.1,4.99,000.00,029.4,028.4,000.0,038.0,031.1,024.1,0000.0,0006.14,0020.62,0004.60
2024-05-29 10:26:00,SystemResetWarning,0832.1,5.00,000.00,029.4,028.4,000.0,038.0,031.1,023.5,0000.0,0006.15,0020.58,0004.59
2024-05-29 10:27:00,SystemResetWarning,0832.0,4.99,000.00,029.4,028.4,000.0,038.0,031.1,022.9,0000.0,0006.13,0019.85,0004.55
2024-05-29 10:28:00,SystemResetWarning,0832.1,4.99,000.00,029.3,028.4,000.0,038.0,031.1,022.7,0000.0,0006.08,0018.28,0004.53
2024-05-29 10:29:00,SystemResetWarning,0832.0,5.00,000.00,029.3,028.4,000.0,038.0,031.1,022.4,0000.0,0006.03,0017.68,0004.51
2024-05-29 10:30:00,SystemResetWarning,0832.0,5.00,000.00,029.3,028.3,000.0,038.0,031.1,022.4,0000.0,0005.94,0015.98,0004.47
2024-05-29 10:31:00,SystemResetWarning,0832.0,5.00,000.00,029.3,028.3,000.0,037.9,031.1,022.4,0000.0,0005.89,0016.24,0004.44
2024-05-29 10:32:00,SystemResetWarning,0832.0,5.01,000.00,029.3,028.3,000.0,037.9,031.1,022.4,0000.0,0005.87,0016.52,0004.40
2024-05-29 10:33:00,SystemResetWarning,0832.1,5.01,000.00,029.3,028.3,000.0,037.9,031.1,022.4,0000.0,0005.83,0016.63,0004.38
2024-05-29 10:34:00,SystemResetWarning,0832.0,5.00,000.00,029.3,028.3,000.0,037.9,031.0,022.4,0000.0,0005.76,0017.06,0004.34
2024-05-29 10:35:00,SystemResetWarning,0832.0,5.00,000.00,029.3,028.3,000.0,037.9,031.0,022.5,0000.0,0005.69,0017.94,0004.29
2024-05-29 10:36:00,SystemResetWarning,0832.0,4.99,000.00,029.3,028.3,000.0,037.9,031.0,022.5,0000.0,0005.71,0018.21,0004.26
2024-05-29 10:37:00,SystemResetWarning,0832.1,4.99,000.00,029.3,028.3,000.0,037.9,031.0,022.5,0000.0,0005.67,0017.90,0004.25
2024-05-29 10:38:00,SystemResetWarning,0832.0,5.00,000.00,029.3,028.3,000.0,037.9,031.0,022.6,0000.0,0005.66,0018.41,0004.26
2024-05-29 10:39:00,SystemResetWarning,0832.0,4.99,000.00,029.3,028.3,000.0,037.9,031.0,022.6,0000.0,0005.63,0018.04,0004.25
2024-05-29 10:40:00,SystemResetWarning,0832.0,5.00,000.00,029.2,028.3,000.0,037.8,031.0,022.7,0000.0,0005.67,0018.80,0004.25
2024-05-29 10:41:00,SystemResetWarning,0832.0,5.00,000.00,029.2,028.3,000.0,037.8,031.0,022.7,0000.0,0005.69,0018.85,0004.26
2024-05-29 10:42:00,SystemResetWarning,0832.0,5.00,000.00,029.2,028.3,000.0,037.8,031.0,022.7,0000.0,0005.65,0018.09,0004.27
2024-05-29 10:43:00,SystemResetWarning,0832.0,5.01,000.00,029.2,028.3,000.0,037.8,031.0,022.8,0000.0,0005.63,0018.06,0004.28
2024-05-29 10:44:00,SystemResetWarning,0831.9,5.00,000.00,029.2,028.2,000.0,037.8,031.0,022.8,0000.0,0005.65,0019.66,0004.29
2024-05-29 10:45:00,SystemResetWarning,0831.8,4.99,000.00,029.2,028.2,000.0,037.8,031.0,022.8,0000.0,0005.70,0020.15,0004.31
2024-05-29 10:46:00,SystemResetWarning,0832.0,4.99,000.00,029.2,028.2,000.0,037.8,031.0,022.9,0000.0,0005.70,0019.71,0004.31
2024-05-29 10:47:00,SystemResetWarning,0832.0,5.00,000.00,029.2,028.2,000.0,037.8,031.0,022.9,0000.0,0005.69,0019.50,0004.32
2024-05-29 10:48:00,SystemResetWarning,0832.2,5.00,000.00,029.2,028.2,000.0,037.7,031.0,023.0,0000.0,0005.74,0018.97,0004.34
2024-05-29 10:49:00,SystemResetWarning,0832.1,5.00,000.00,029.2,028.2,000.0,037.7,030.9,023.0,0000.0,0005.77,0018.78,0004.35
2024-05-29 10:50:00,SystemResetWarning,0832.3,5.01,000.00,029.1,028.2,000.0,037.7,030.9,023.1,0000.0,0005.84,0019.32,0004.36
2024-05-29 10:51:00,SystemResetWarning,0832.4,5.01,000.00,029.1,028.2,000.0,037.7,030.9,023.1,0000.0,0005.84,0019.29,0004.36
2024-05-29 10:52:00,SystemResetWarning,0832.3,5.00,000.00,029.1,028.1,000.0,037.7,030.9,023.1,0000.0,0005.85,0019.27,0004.38
2024-05-29 10:53:00,SystemResetWarning,0832.3,5.00,000.00,029.1,028.1,000.0,037.7,030.8,023.2,0000.0,0005.86,0019.54,0004.39
2024-05-29 10:54:00,SystemResetWarning,0832.3,5.00,000.00,029.1,028.1,000.0,037.7,030.8,023.2,0000.0,0005.87,0019.72,0004.40
2024-05-29 10:55:00,SystemResetWarning,0832.0,5.00,000.00,029.0,028.1,000.0,037.7,030.8,023.3,0000.0,0005.94,0018.84,0004.41
2024-05-29 10:56:00,SystemResetWarning,0831.8,5.00,000.00,029.0,028.1,000.0,037.6,030.8,023.3,0000.0,0005.95,0017.22,0004.41
2024-05-29 10:57:00,SystemResetWarning,0831.9,5.00,000.00,029.0,028.1,000.0,037.6,030.8,023.2,0000.0,0005.94,0017.11,0004.42
2024-05-29 10:58:00,SystemResetWarning,0831.8,5.01,000.00,029.0,028.1,000.0,037.6,030.8,023.2,0000.0,0005.94,0017.64,0004.43
2024-05-29 10:59:00,SystemResetWarning,0831.8,5.01,000.00,029.0,028.1,000.0,037.6,030.8,023.2,0000.0,0005.95,0018.25,0004.44
